When you browse on this site, cookies collect data to enhance your experience and personalize the content and advertising you see.
Visit our Privacy Policy to learn more. By continuing to use the site, you agree to this use of cookies and data.
  • In Spain
  • List of Countries
  • For 7 days
  • Water Temperature
  • Weather Map
  • Weather Widgets
  • user-avatar
    Login

    Hourly Weather Beverly

    Today, 20 January, Monday

    Time Temperature Precipitation Wind Pressure Humidity
    00:00 +1°C° 0 mm 4 mps 784 mmHg 93%
    01:00 0°C° 0 mm 4 mps 784 mmHg 92%
    02:00 0°C° 0 mm 4 mps 784 mmHg 91%
    03:00 0°C° 0 mm 4 mps 784 mmHg 90%
    04:00 0°C° 0 mm 4 mps 784 mmHg 90%
    05:00 0°C° 0 mm 4 mps 784 mmHg 90%
    06:00 +1°C° 0 mm 3 mps 784 mmHg 93%
    07:00 0°C° 0 mm 4 mps 783 mmHg 93%
    08:00 0°C° 0 mm 4 mps 783 mmHg 93%
    09:00 +1°C° 0 mm 5 mps 783 mmHg 93%
    10:00 +2°C° 0 mm 5 mps 783 mmHg 88%
    11:00 +3°C° 0 mm 5 mps 783 mmHg 84%
    12:00 +6°C° 0 mm 5 mps 783 mmHg 79%
    13:00 +5°C° 0 mm 5 mps 783 mmHg 79%
    14:00 +5°C° 0 mm 5 mps 782 mmHg 80%
    15:00 +5°C° 0 mm 4 mps 782 mmHg 80%
    16:00 +5°C° 0 mm 4 mps 782 mmHg 82%
    17:00 +4°C° 0 mm 4 mps 782 mmHg 85%
    18:00 +2°C° 0 mm 5 mps 782 mmHg 87%
    19:00 +1°C° 0 mm 4 mps 782 mmHg 88%
    20:00 +1°C° 0 mm 4 mps 781 mmHg 89%
    21:00 +1°C° 0 mm 4 mps 781 mmHg 90%
    22:00 +1°C° 0 mm 4 mps 781 mmHg 91%
    23:00 +1°C° 0 mm 4 mps 781 mmHg 91%

    Tomorrow, 21 January, Tuesday

    Time Temperature Precipitation Wind Pressure Humidity
    00:00 +2°C° 0 mm 3 mps 781 mmHg 92%
    01:00 +1°C° 0 mm 3 mps 781 mmHg 92%
    02:00 +1°C° 0 mm 3 mps 781 mmHg 92%
    03:00 +2°C° 0 mm 2 mps 781 mmHg 92%
    04:00 +2°C° 0 mm 2 mps 780 mmHg 92%
    05:00 +2°C° 0 mm 2 mps 780 mmHg 92%
    06:00 +1°C° 0 mm 2 mps 780 mmHg 92%
    07:00 +2°C° 0 mm 2 mps 780 mmHg 91%
    08:00 +2°C° 0 mm 2 mps 780 mmHg 91%
    09:00 +2°C° 0 mm 2 mps 780 mmHg 91%
    10:00 +4°C° 0 mm 2 mps 780 mmHg 88%
    11:00 +5°C° 0 mm 2 mps 780 mmHg 85%
    12:00 +7°C° 0 mm 2 mps 780 mmHg 82%
    13:00 +7°C° 0 mm 3 mps 779 mmHg 83%
    14:00 +7°C° 0 mm 3 mps 779 mmHg 84%
    15:00 +7°C° 0 mm 3 mps 778 mmHg 86%
    16:00 +5°C° 0 mm 3 mps 778 mmHg 88%
    17:00 +5°C° 0 mm 3 mps 778 mmHg 91%
    18:00 +4°C° 0 mm 3 mps 778 mmHg 93%
    19:00 +5°C° 0 mm 2 mps 778 mmHg 93%
    20:00 +5°C° 0 mm 2 mps 778 mmHg 93%
    21:00 +5°C° 0 mm 2 mps 778 mmHg 93%
    22:00 +6°C° 0 mm 2 mps 778 mmHg 93%
    23:00 +6°C° 0 mm 2 mps 778 mmHg 93%

    Day after tomorrow, 22 January, Wednesday

    Time Temperature Precipitation Wind Pressure Humidity
    00:00 +7°C° 0 mm 2 mps 777 mmHg 93%
    01:00 +7°C° 0 mm 2 mps 777 mmHg 93%
    02:00 +6°C° 0 mm 2 mps 777 mmHg 93%
    03:00 +6°C° 0 mm 2 mps 777 mmHg 93%
    04:00 +6°C° 0 mm 2 mps 777 mmHg 94%
    05:00 +6°C° 0 mm 2 mps 777 mmHg 94%
    06:00 +6°C° 0 mm 2 mps 776 mmHg 94%
    07:00 +6°C° 0 mm 2 mps 776 mmHg 93%
    08:00 +7°C° 0 mm 2 mps 777 mmHg 93%
    09:00 +8°C° 0 mm 1 mps 777 mmHg 93%
    10:00 +9°C° 0 mm 1 mps 777 mmHg 89%
    11:00 +10°C° 0 mm 1 mps 777 mmHg 86%
    12:00 +11°C° 0 mm 1 mps 777 mmHg 83%
    13:00 +11°C° 0 mm 1 mps 777 mmHg 84%
    14:00 +11°C° 0 mm 1 mps 776 mmHg 85%
    15:00 +11°C° 0 mm 1 mps 776 mmHg 87%
    16:00 +10°C° 0 mm 1 mps 776 mmHg 88%
    17:00 +9°C° 0 mm 1 mps 776 mmHg 90%
    18:00 +8°C° 0 mm 1 mps 775 mmHg 92%
    19:00 +8°C° 0 mm 1 mps 775 mmHg 92%
    20:00 +8°C° 0 mm 1 mps 775 mmHg 93%
    21:00 +8°C° 0 mm 1 mps 775 mmHg 94%
    22:00 +7°C° 0 mm 1 mps 775 mmHg 94%
    23:00 +7°C° 0 mm 1 mps 775 mmHg 94%

    23 January, Thursday

    Time Temperature Precipitation Wind Pressure Humidity
    00:00 +7°C° 0 mm 1 mps 775 mmHg 94%
    01:00 +7°C° 0 mm 1 mps 775 mmHg 94%
    02:00 +6°C° 0 mm 2 mps 774 mmHg 94%
    03:00 +6°C° 0 mm 2 mps 774 mmHg 95%
    04:00 +5°C° 0 mm 2 mps 773 mmHg 95%
    05:00 +5°C° 0 mm 2 mps 773 mmHg 95%
    06:00 +5°C° 0 mm 2 mps 772 mmHg 95%
    07:00 +5°C° 0 mm 2 mps 772 mmHg 95%
    08:00 +5°C° 0 mm 2 mps 772 mmHg 95%
    09:00 +5°C° 0 mm 2 mps 772 mmHg 95%
    10:00 +6°C° 0 mm 2 mps 772 mmHg 92%
    11:00 +8°C° 0 mm 2 mps 771 mmHg 88%
    12:00 +9°C° 0 mm 2 mps 771 mmHg 85%
    13:00 +9°C° 0 mm 2 mps 770 mmHg 86%
    14:00 +9°C° 0 mm 3 mps 770 mmHg 88%
    15:00 +9°C° 0 mm 3 mps 769 mmHg 89%
    16:00 +8°C° 0 mm 3 mps 769 mmHg 92%
    17:00 +7°C° 0 mm 3 mps 769 mmHg 94%
    18:00 +5°C° 0 mm 3 mps 768 mmHg 96%
    19:00 +5°C° 0 mm 3 mps 768 mmHg 96%
    20:00 +5°C° 0 mm 3 mps 768 mmHg 96%
    21:00 +5°C° 0 mm 3 mps 768 mmHg 96%
    22:00 +5°C° 0 mm 3 mps 767 mmHg 97%
    23:00 +5°C° 0 mm 3 mps 767 mmHg 97%

    24 January, Friday

    Time Temperature Precipitation Wind Pressure Humidity
    00:00 +5°C° 0 mm 3 mps 766 mmHg 97%
    01:00 +5°C° 0 mm 3 mps 766 mmHg 96%
    02:00 +5°C° 0 mm 3 mps 765 mmHg 96%
    03:00 +5°C° 0 mm 3 mps 765 mmHg 96%
    04:00 +5°C° 0 mm 3 mps 765 mmHg 95%
    05:00 +6°C° 0 mm 2 mps 764 mmHg 95%
    06:00 +6°C° 0 mm 2 mps 764 mmHg 94%
    07:00 +6°C° 0 mm 2 mps 764 mmHg 93%
    08:00 +6°C° 0 mm 2 mps 764 mmHg 93%
    09:00 +7°C° 0 mm 2 mps 764 mmHg 92%
    10:00 +7°C° 0 mm 2 mps 763 mmHg 88%
    11:00 +8°C° 0 mm 3 mps 763 mmHg 85%
    12:00 +9°C° 0 mm 3 mps 763 mmHg 81%
    13:00 +9°C° 0 mm 3 mps 763 mmHg 81%
    14:00 +9°C° 0 mm 3 mps 762 mmHg 81%
    15:00 +9°C° 0 mm 2 mps 762 mmHg 80%
    16:00 +8°C° 0 mm 2 mps 762 mmHg 82%
    17:00 +7°C° 0 mm 2 mps 762 mmHg 84%
    18:00 +7°C° 0 mm 2 mps 762 mmHg 86%
    19:00 +7°C° 0 mm 2 mps 762 mmHg 87%
    20:00 +6°C° 0 mm 2 mps 762 mmHg 88%
    21:00 +6°C° 0 mm 2 mps 762 mmHg 88%
    22:00 +6°C° 0 mm 2 mps 761 mmHg 89%
    23:00 +6°C° 0 mm 2 mps 761 mmHg 89%

    25 January, Saturday

    Time Temperature Precipitation Wind Pressure Humidity
    00:00 +5°C° 0 mm 2 mps 761 mmHg 89%
    01:00 +4°C° 0 mm 3 mps 760 mmHg 90%
    02:00 +4°C° 0 mm 3 mps 760 mmHg 90%
    03:00 +4°C° 0 mm 3 mps 759 mmHg 91%
    04:00 +4°C° 0 mm 3 mps 759 mmHg 92%
    05:00 +4°C° 0 mm 3 mps 759 mmHg 92%
    06:00 +4°C° 0 mm 4 mps 758 mmHg 93%
    07:00 +4°C° 0 mm 4 mps 758 mmHg 93%
    08:00 +3°C° 0 mm 5 mps 758 mmHg 92%
    09:00 +5°C° 0 mm 5 mps 758 mmHg 91%
    10:00 +4°C° 0 mm 6 mps 757 mmHg 87%
    11:00 +4°C° 0 mm 6 mps 756 mmHg 83%
    12:00 +5°C° 0 mm 7 mps 755 mmHg 79%
    13:00 +5°C° 0 mm 7 mps 755 mmHg 77%
    14:00 +5°C° 0 mm 7 mps 754 mmHg 75%
    15:00 +6°C° 0 mm 7 mps 753 mmHg 73%
    16:00 +6°C° 0 mm 8 mps 752 mmHg 74%
    17:00 +6°C° 0 mm 8 mps 751 mmHg 75%
    18:00 +5°C° 0 mm 9 mps 751 mmHg 77%
    19:00 +6°C° 0.2 mm 9 mps 751 mmHg 78%
    20:00 +6°C° 0.2 mm 9 mps 751 mmHg 79%
    21:00 +7°C° 0.2 mm 9 mps 751 mmHg 80%
    22:00 +6°C° 0 mm 8 mps 752 mmHg 79%
    23:00 +5°C° 0 mm 7 mps 752 mmHg 78%
    Show more